Terminal Aerodrome Forecast
Issued by NWS

Home | Current Version | Previous Version | Text Only | Print | Product List | Glossary On
Versions: 1 2 3 4 5 6 7 8 9 10 11 12 13 14 15 16 17 18 19 20 21 22 23 24 25 26 27 28 29 30 31 32 33 34 35 36 37 38 39 40 41 42 43 44 45 46 47 48 49 50
000
FTUS41 KCTP 210830 AAC
TAFBFD
TAF AMD
KBFD 210830Z 2109/2206 00000KT 4SM BR BKN100
     FM210840 VRB05KT 2SM TSRA OVC025CB
     FM210900 00000KT 2SM BR SCT030
     FM211400 25005KT P6SM SCT040
     FM211700 28005KT P6SM BKN050
     FM220000 VRB03KT P6SM BKN100=

USA.gov is the U.S. government's official web portal to all federal, state and local government web resources and services.